Time,TemperatureF,DewpointF,PressureIn,WindDirection,WindDirectionDegrees,WindSpeedMPH,WindSpeedGustMPH,Humidity,HourlyPrecipIn,Conditions,Clouds,dailyrainin,SoftwareType,DateUTC
2013-12-12 00:00:00,74.8,71.2,30.18,ESE,115,0.0,0.0,89,0.00,,---,0.00,VWS V13.01,2013-12-12 05:00:00,
2013-12-12 00:01:00,74.6,71.0,30.18,ESE,115,0.0,0.0,89,0.00,,---,0.00,VWS V13.01,2013-12-12 05:01:00,
2013-12-12 00:02:00,74.6,71.1,30.18,ESE,115,0.0,0.0,89,0.00,,---,0.00,VWS V13.01,2013-12-12 05:02:00,
2013-12-12 00:03:00,74.4,70.8,30.17,ESE,115,0.0,0.0,89,0.00,,---,0.00,VWS V13.01,2013-12-12 05:03:00,
2013-12-12 00:04:00,74.6,71.1,30.17,ESE,115,0.0,0.0,89,0.00,,---,0.00,VWS V13.01,2013-12-12 05:04:00,
2013-12-12 00:05:00,74.6,71.1,30.18,ESE,115,0.0,0.0,89,0.00,,---,0.00,VWS V13.01,2013-12-12 05:05:00,
2013-12-12 00:06:00,74.4,70.9,30.17,ESE,115,0.0,0.0,89,0.00,,---,0.00,VWS V13.01,2013-12-12 05:06:00,
2013-12-12 00:07:00,74.3,70.8,30.17,ESE,115,0.0,0.0,89,0.00,,---,0.00,VWS V13.01,2013-12-12 05:07:00,
2013-12-12 00:08:00,74.6,71.1,30.18,ESE,115,0.0,0.0,89,0.00,,---,0.00,VWS V13.01,2013-12-12 05:08:00,
2013-12-12 00:09:00,74.2,70.8,30.17,ESE,115,0.0,0.0,89,0.00,,---,0.00,VWS V13.01,2013-12-12 05:09:00,
2013-12-12 00:10:00,74.5,71.1,30.17,ESE,115,0.0,0.0,89,0.00,,---,0.00,VWS V13.01,2013-12-12 05:10:00,
2013-12-12 00:11:00,74.4,71.0,30.17,ESE,115,0.0,0.0,89,0.00,,---,0.00,VWS V13.01,2013-12-12 05:11:00,
2013-12-12 00:12:00,74.4,71.0,30.17,ESE,115,0.0,0.0,89,0.00,,---,0.00,VWS V13.01,2013-12-12 05:12:00,
2013-12-12 00:13:00,74.4,71.0,30.17,ESE,115,0.0,0.0,89,0.00,,---,0.00,VWS V13.01,2013-12-12 05:13:00,
2013-12-12 00:14:00,74.4,71.0,30.17,ESE,115,0.0,0.0,89,0.00,,---,0.00,VWS V13.01,2013-12-12 05:14:00,
2013-12-12 00:15:00,74.3,70.9,30.17,ESE,115,0.0,0.0,89,0.00,,---,0.00,VWS V13.01,2013-12-12 05:15:00,
2013-12-12 00:16:00,74.2,70.8,30.17,ESE,115,0.0,0.0,89,0.00,,---,0.00,VWS V13.01,2013-12-12 05:16:00,
2013-12-12 00:17:00,74.3,71.0,30.17,ESE,115,0.0,0.0,89,0.00,,---,0.00,VWS V13.01,2013-12-12 05:17:00,
2013-12-12 00:18:00,74.3,71.0,30.18,ESE,115,0.0,0.0,89,0.00,,---,0.00,VWS V13.01,2013-12-12 05:18:00,
2013-12-12 00:19:00,74.2,70.9,30.17,ESE,115,0.0,0.0,89,0.00,,---,0.00,VWS V13.01,2013-12-12 05:19:00,
2013-12-12 00:20:00,74.1,70.8,30.17,ESE,115,0.0,0.0,89,0.00,,---,0.00,VWS V13.01,2013-12-12 05:20:00,
2013-12-12 00:21:00,74.3,71.0,30.17,ESE,115,0.0,0.0,90,0.00,,---,0.00,VWS V13.01,2013-12-12 05:21:00,
2013-12-12 00:22:00,74.2,70.9,30.17,ESE,115,0.0,0.0,90,0.00,,---,0.00,VWS V13.01,2013-12-12 05:22:00,
2013-12-12 00:23:00,74.0,70.8,30.18,ESE,115,0.0,0.0,90,0.00,,---,0.00,VWS V13.01,2013-12-12 05:23:00,
2013-12-12 00:24:00,74.0,70.8,30.17,ESE,115,0.0,0.0,90,0.00,,---,0.00,VWS V13.01,2013-12-12 05:24:00,
2013-12-12 00:25:00,74.1,70.8,30.17,ESE,115,0.0,0.0,90,0.00,,---,0.00,VWS V13.01,2013-12-12 05:25:00,
2013-12-12 00:26:00,73.9,70.7,30.17,ESE,115,0.0,0.0,90,0.00,,---,0.00,VWS V13.01,2013-12-12 05:26:00,
2013-12-12 00:27:00,73.8,70.6,30.17,ESE,115,0.0,0.0,90,0.00,,---,0.00,VWS V13.01,2013-12-12 05:27:00,
2013-12-12 00:28:00,73.8,70.6,30.17,ESE,115,0.0,0.0,90,0.00,,---,0.00,VWS V13.01,2013-12-12 05:28:00,
2013-12-12 00:29:00,73.9,70.7,30.17,ESE,115,0.0,0.0,90,0.00,,---,0.00,VWS V13.01,2013-12-12 05:29:00,
2013-12-12 00:30:00,74.0,70.8,30.17,ESE,115,0.0,0.0,90,0.00,,---,0.00,VWS V13.01,2013-12-12 05:30:00,
2013-12-12 00:31:00,73.9,70.8,30.17,ESE,115,0.0,0.0,90,0.00,,---,0.00,VWS V13.01,2013-12-12 05:31:00,
2013-12-12 00:32:00,73.9,70.8,30.17,ESE,115,0.0,0.0,90,0.00,,---,0.00,VWS V13.01,2013-12-12 05:32:00,
2013-12-12 00:33:00,73.7,70.6,30.17,ESE,115,0.0,0.0,90,0.00,,---,0.00,VWS V13.01,2013-12-12 05:33:00,
2013-12-12 00:34:00,73.8,70.7,30.17,ESE,115,0.0,0.0,90,0.00,,---,0.00,VWS V13.01,2013-12-12 05:34:00,
2013-12-12 00:35:00,73.7,70.6,30.17,ESE,115,0.0,0.0,90,0.00,,---,0.00,VWS V13.01,2013-12-12 05:35:00,
2013-12-12 00:36:00,73.8,70.7,30.17,ESE,115,0.0,0.0,90,0.00,,---,0.00,VWS V13.01,2013-12-12 05:36:00,
2013-12-12 00:37:00,73.7,70.6,30.17,ESE,115,0.0,0.0,90,0.00,,---,0.00,VWS V13.01,2013-12-12 05:37:00,
2013-12-12 00:38:00,73.9,70.9,30.17,ESE,115,0.0,0.0,90,0.00,,---,0.00,VWS V13.01,2013-12-12 05:38:00,
2013-12-12 00:39:00,73.7,70.7,30.17,ESE,115,0.0,0.0,90,0.00,,---,0.00,VWS V13.01,2013-12-12 05:39:00,
2013-12-12 00:40:00,73.8,70.8,30.17,ESE,115,0.0,0.0,90,0.00,,---,0.00,VWS V13.01,2013-12-12 05:40:00,
2013-12-12 00:41:00,73.7,70.7,30.17,ESE,115,0.0,0.0,90,0.00,,---,0.00,VWS V13.01,2013-12-12 05:41:00,
2013-12-12 00:42:00,73.8,70.8,30.17,ESE,115,0.0,0.0,90,0.00,,---,0.00,VWS V13.01,2013-12-12 05:42:00,
2013-12-12 00:43:00,73.6,70.7,30.17,ESE,115,0.0,0.0,90,0.00,,---,0.00,VWS V13.01,2013-12-12 05:43:00,
2013-12-12 00:44:00,73.8,70.8,30.17,ESE,115,0.0,0.0,90,0.00,,---,0.00,VWS V13.01,2013-12-12 05:44:00,
2013-12-12 00:45:00,73.7,70.8,30.17,ESE,115,0.0,0.0,91,0.00,,---,0.00,VWS V13.01,2013-12-12 05:45:00,
2013-12-12 00:46:00,73.7,70.8,30.17,ESE,115,0.0,0.0,91,0.00,,---,0.00,VWS V13.01,2013-12-12 05:46:00,
2013-12-12 00:47:00,73.6,70.7,30.17,ESE,115,0.0,0.0,91,0.00,,---,0.00,VWS V13.01,2013-12-12 05:47:00,
2013-12-12 00:48:00,73.8,70.9,30.17,ESE,115,0.0,0.0,91,0.00,,---,0.00,VWS V13.01,2013-12-12 05:48:00,
2013-12-12 00:49:00,73.6,70.7,30.17,ESE,115,0.0,0.0,91,0.00,,---,0.00,VWS V13.01,2013-12-12 05:49:00,
2013-12-12 00:50:00,73.5,70.7,30.17,ESE,115,0.0,0.0,91,0.00,,---,0.00,VWS V13.01,2013-12-12 05:50:00,
2013-12-12 00:51:00,73.6,70.8,30.17,ESE,115,0.0,0.0,91,0.00,,---,0.00,VWS V13.01,2013-12-12 05:51:00,
2013-12-12 00:52:00,73.6,70.8,30.17,ESE,115,0.0,0.0,91,0.00,,---,0.00,VWS V13.01,2013-12-12 05:52:00,
2013-12-12 00:53:00,73.5,70.7,30.17,ESE,115,0.0,0.0,91,0.00,,---,0.00,VWS V13.01,2013-12-12 05:53:00,
2013-12-12 00:54:00,73.4,70.6,30.17,ESE,115,0.0,0.0,91,0.00,,---,0.00,VWS V13.01,2013-12-12 05:54:00,
2013-12-12 00:55:00,73.4,70.6,30.17,ESE,115,0.0,0.0,91,0.00,,---,0.00,VWS V13.01,2013-12-12 05:55:00,
2013-12-12 00:56:00,73.6,70.8,30.17,ESE,115,0.0,0.0,91,0.00,,---,0.00,VWS V13.01,2013-12-12 05:56:00,
2013-12-12 00:57:00,73.6,70.8,30.17,ESE,115,0.0,0.0,91,0.00,,---,0.00,VWS V13.01,2013-12-12 05:57:00,
2013-12-12 00:58:00,73.5,70.8,30.17,ESE,115,0.0,0.0,91,0.00,,---,0.00,VWS V13.01,2013-12-12 05:58:00,
2013-12-12 00:59:00,73.3,70.6,30.17,ESE,115,0.0,0.0,91,0.00,,---,0.00,VWS V13.01,2013-12-12 05:59:00,
2013-12-12 01:00:00,73.5,70.8,30.17,ESE,115,0.0,0.0,91,0.00,,---,0.00,VWS V13.01,2013-12-12 06:00:00,
2013-12-12 01:01:00,73.4,70.7,30.17,ESE,115,0.0,0.0,91,0.00,,---,0.00,VWS V13.01,2013-12-12 06:01:00,
2013-12-12 01:02:00,73.4,70.7,30.17,ESE,115,0.0,0.0,91,0.00,,---,0.00,VWS V13.01,2013-12-12 06:02:00,
2013-12-12 01:03:00,73.3,70.6,30.17,ESE,115,0.0,0.0,91,0.00,,---,0.00,VWS V13.01,2013-12-12 06:03:00,
2013-12-12 01:04:00,73.2,70.6,30.17,ESE,115,0.0,0.0,91,0.00,,---,0.00,VWS V13.01,2013-12-12 06:04:00,
2013-12-12 01:05:00,73.3,70.7,30.17,ESE,115,0.0,0.0,91,0.00,,---,0.00,VWS V13.01,2013-12-12 06:05:00,
2013-12-12 01:06:00,73.3,70.7,30.17,ESE,115,0.0,0.0,91,0.00,,---,0.00,VWS V13.01,2013-12-12 06:06:00,
2013-12-12 01:07:00,73.4,70.8,30.17,ESE,115,0.0,0.0,92,0.00,,---,0.00,VWS V13.01,2013-12-12 06:07:00,
2013-12-12 01:08:00,73.2,70.6,30.17,ESE,115,0.0,0.0,92,0.00,,---,0.00,VWS V13.01,2013-12-12 06:08:00,
2013-12-12 01:09:00,73.4,70.8,30.17,ESE,115,0.0,0.0,92,0.00,,---,0.00,VWS V13.01,2013-12-12 06:09:00,
2013-12-12 01:10:00,73.2,70.6,30.17,ESE,115,0.0,0.0,92,0.00,,---,0.00,VWS V13.01,2013-12-12 06:10:00,
2013-12-12 01:11:00,73.3,70.7,30.17,ESE,115,0.0,0.0,92,0.00,,---,0.00,VWS V13.01,2013-12-12 06:11:00,
2013-12-12 01:12:00,73.2,70.6,30.17,ESE,115,0.0,0.0,92,0.00,,---,0.00,VWS V13.01,2013-12-12 06:12:00,
2013-12-12 01:13:00,73.3,70.7,30.17,ESE,115,0.0,0.0,92,0.00,,---,0.00,VWS V13.01,2013-12-12 06:13:00,
2013-12-12 01:14:00,73.3,70.7,30.17,ESE,115,0.0,0.0,92,0.00,,---,0.00,VWS V13.01,2013-12-12 06:14:00,
2013-12-12 01:15:00,73.3,70.7,30.17,ESE,115,0.0,0.0,92,0.00,,---,0.00,VWS V13.01,2013-12-12 06:15:00,
2013-12-12 01:16:00,73.2,70.6,30.17,ESE,115,0.0,0.0,92,0.00,,---,0.00,VWS V13.01,2013-12-12 06:16:00,
2013-12-12 01:17:00,73.2,70.6,30.17,ESE,115,0.0,0.0,92,0.00,,---,0.00,VWS V13.01,2013-12-12 06:17:00,
2013-12-12 01:18:00,73.3,70.8,30.17,ESE,115,0.0,0.0,92,0.00,,---,0.00,VWS V13.01,2013-12-12 06:18:00,
2013-12-12 01:19:00,73.2,70.7,30.17,ESE,115,0.0,0.0,92,0.00,,---,0.00,VWS V13.01,2013-12-12 06:19:00,
2013-12-12 01:20:00,73.2,70.7,30.17,ESE,115,0.0,0.0,92,0.00,,---,0.00,VWS V13.01,2013-12-12 06:20:00,
2013-12-12 01:21:00,73.1,70.6,30.17,ESE,115,0.0,0.0,92,0.00,,---,0.00,VWS V13.01,2013-12-12 06:21:00,
2013-12-12 01:22:00,73.0,70.5,30.17,ESE,115,0.0,0.0,92,0.00,,---,0.00,VWS V13.01,2013-12-12 06:22:00,
2013-12-12 01:23:00,73.0,70.5,30.17,ESE,115,0.0,0.0,92,0.00,,---,0.00,VWS V13.01,2013-12-12 06:23:00,
2013-12-12 01:24:00,73.1,70.6,30.17,ESE,115,0.0,0.0,92,0.00,,---,0.00,VWS V13.01,2013-12-12 06:24:00,
2013-12-12 01:25:00,72.9,70.4,30.17,ESE,115,0.0,0.0,92,0.00,,---,0.00,VWS V13.01,2013-12-12 06:25:00,
2013-12-12 01:26:00,73.0,70.5,30.17,ESE,115,0.0,0.0,92,0.00,,---,0.00,VWS V13.01,2013-12-12 06:26:00,
2013-12-12 01:27:00,72.9,70.4,30.17,ESE,115,0.0,0.0,92,0.00,,---,0.00,VWS V13.01,2013-12-12 06:27:00,
2013-12-12 01:28:00,73.0,70.5,30.17,ESE,115,0.0,0.0,92,0.00,,---,0.00,VWS V13.01,2013-12-12 06:28:00,
2013-12-12 01:29:00,72.8,70.3,30.16,ESE,115,0.0,0.0,92,0.00,,---,0.00,VWS V13.01,2013-12-12 06:29:00,
2013-12-12 01:30:00,72.9,70.5,30.17,ESE,115,0.0,0.0,92,0.00,,---,0.00,VWS V13.01,2013-12-12 06:30:00,
2013-12-12 01:31:00,72.9,70.5,30.17,ESE,115,0.0,0.0,92,0.00,,---,0.00,VWS V13.01,2013-12-12 06:31:00,
2013-12-12 01:32:00,72.9,70.5,30.17,ESE,115,0.0,0.0,92,0.00,,---,0.00,VWS V13.01,2013-12-12 06:32:00,
2013-12-12 01:33:00,72.8,70.4,30.17,ESE,115,0.0,0.0,92,0.00,,---,0.00,VWS V13.01,2013-12-12 06:33:00,
2013-12-12 01:34:00,72.9,70.6,30.17,ESE,115,0.0,0.0,92,0.00,,---,0.00,VWS V13.01,2013-12-12 06:34:00,
2013-12-12 01:35:00,72.9,70.6,30.17,ESE,115,0.0,0.0,92,0.00,,---,0.00,VWS V13.01,2013-12-12 06:35:00,
2013-12-12 01:36:00,72.8,70.5,30.17,ESE,115,0.0,0.0,92,0.00,,---,0.00,VWS V13.01,2013-12-12 06:36:00,
2013-12-12 01:37:00,72.7,70.4,30.17,ESE,115,0.0,0.0,92,0.00,,---,0.00,VWS V13.01,2013-12-12 06:37:00,
2013-12-12 01:38:00,72.9,70.6,30.17,ESE,115,0.0,0.0,92,0.00,,---,0.00,VWS V13.01,2013-12-12 06:38:00,
2013-12-12 01:39:00,72.7,70.4,30.17,ESE,115,0.0,0.0,92,0.00,,---,0.00,VWS V13.01,2013-12-12 06:39:00,
2013-12-12 01:40:00,72.8,70.5,30.17,ESE,115,0.0,0.0,92,0.00,,---,0.00,VWS V13.01,2013-12-12 06:40:00,
2013-12-12 01:42:00,72.7,70.4,30.17,ESE,115,0.0,0.0,93,0.00,,---,0.00,VWS V13.01,2013-12-12 06:42:00,
2013-12-12 01:43:00,72.7,70.5,30.17,ESE,115,0.0,0.0,93,0.00,,---,0.00,VWS V13.01,2013-12-12 06:43:00,
2013-12-12 01:44:00,72.6,70.4,30.17,ESE,115,0.0,0.0,93,0.00,,---,0.00,VWS V13.01,2013-12-12 06:44:00,
2013-12-12 01:45:00,72.7,70.5,30.17,ESE,115,0.0,0.0,93,0.00,,---,0.00,VWS V13.01,2013-12-12 06:45:00,
2013-12-12 01:46:00,72.7,70.5,30.17,ESE,115,0.0,0.0,93,0.00,,---,0.00,VWS V13.01,2013-12-12 06:46:00,
2013-12-12 01:47:00,72.7,70.5,30.17,ESE,115,0.0,0.0,93,0.00,,---,0.00,VWS V13.01,2013-12-12 06:47:00,
2013-12-12 01:48:00,72.8,70.6,30.17,ESE,115,0.0,0.0,93,0.00,,---,0.00,VWS V13.01,2013-12-12 06:48:00,
2013-12-12 01:49:00,72.7,70.5,30.17,ESE,115,0.0,0.0,93,0.00,,---,0.00,VWS V13.01,2013-12-12 06:49:00,
2013-12-12 01:50:00,72.5,70.4,30.17,ESE,115,0.0,0.0,93,0.00,,---,0.00,VWS V13.01,2013-12-12 06:50:00,
2013-12-12 01:51:00,72.6,70.5,30.17,ESE,115,0.0,0.0,93,0.00,,---,0.00,VWS V13.01,2013-12-12 06:51:00,
2013-12-12 01:52:00,72.6,70.5,30.17,ESE,115,0.0,0.0,93,0.00,,---,0.00,VWS V13.01,2013-12-12 06:52:00,
2013-12-12 01:53:00,72.7,70.6,30.17,ESE,115,0.0,0.0,93,0.00,,---,0.00,VWS V13.01,2013-12-12 06:53:00,
2013-12-12 01:54:00,72.6,70.5,30.17,ESE,115,0.0,0.0,93,0.00,,---,0.00,VWS V13.01,2013-12-12 06:54:00,
2013-12-12 01:55:00,72.3,70.2,30.17,ESE,115,0.0,0.0,93,0.00,,---,0.00,VWS V13.01,2013-12-12 06:55:00,
2013-12-12 01:56:00,72.4,70.3,30.16,ESE,115,0.0,0.0,93,0.00,,---,0.00,VWS V13.01,2013-12-12 06:56:00,
2013-12-12 01:57:00,72.5,70.4,30.16,ESE,115,0.0,0.0,93,0.00,,---,0.00,VWS V13.01,2013-12-12 06:57:00,
2013-12-12 01:58:00,72.4,70.3,30.16,ESE,115,0.0,0.0,93,0.00,,---,0.00,VWS V13.01,2013-12-12 06:58:00,
2013-12-12 01:59:00,72.5,70.4,30.16,ESE,115,0.0,0.0,93,0.00,,---,0.00,VWS V13.01,2013-12-12 06:59:00,
2013-12-12 02:00:00,72.4,70.3,30.16,ESE,115,0.0,0.0,93,0.00,,---,0.00,VWS V13.01,2013-12-12 07:00:00,
2013-12-12 02:01:00,72.4,70.3,30.16,ESE,115,0.0,0.0,93,0.00,,---,0.00,VWS V13.01,2013-12-12 07:01:00,
2013-12-12 02:02:00,72.4,70.3,30.16,ESE,115,0.0,0.0,93,0.00,,---,0.00,VWS V13.01,2013-12-12 07:02:00,
2013-12-12 02:03:00,72.4,70.3,30.16,ESE,115,0.0,0.0,93,0.00,,---,0.00,VWS V13.01,2013-12-12 07:03:00,
2013-12-12 02:04:00,72.3,70.2,30.16,ESE,115,0.0,0.0,93,0.00,,---,0.00,VWS V13.01,2013-12-12 07:04:00,
2013-12-12 02:05:00,72.4,70.3,30.16,ESE,115,0.0,0.0,93,0.00,,---,0.00,VWS V13.01,2013-12-12 07:05:00,
2013-12-12 02:06:00,72.3,70.2,30.16,ESE,115,0.0,0.0,93,0.00,,---,0.00,VWS V13.01,2013-12-12 07:06:00,
2013-12-12 02:07:00,72.1,70.0,30.16,ESE,115,0.0,0.0,93,0.00,,---,0.00,VWS V13.01,2013-12-12 07:07:00,
2013-12-12 02:08:00,72.1,70.1,30.16,ESE,115,0.0,0.0,93,0.00,,---,0.00,VWS V13.01,2013-12-12 07:08:00,
2013-12-12 02:09:00,72.2,70.2,30.16,ESE,115,0.0,0.0,93,0.00,,---,0.00,VWS V13.01,2013-12-12 07:09:00,
2013-12-12 02:10:00,72.1,70.1,30.16,ESE,115,0.0,0.0,93,0.00,,---,0.00,VWS V13.01,2013-12-12 07:10:00,
2013-12-12 02:11:00,72.2,70.2,30.16,ESE,115,0.0,0.0,93,0.00,,---,0.00,VWS V13.01,2013-12-12 07:11:00,
2013-12-12 02:12:00,72.2,70.2,30.16,ESE,115,0.0,0.0,94,0.00,,---,0.00,VWS V13.01,2013-12-12 07:12:00,
2013-12-12 02:13:00,72.1,70.1,30.16,ESE,115,0.0,0.0,94,0.00,,---,0.00,VWS V13.01,2013-12-12 07:13:00,
2013-12-12 02:14:00,72.3,70.4,30.16,ESE,115,0.0,0.0,94,0.00,,---,0.00,VWS V13.01,2013-12-12 07:14:00,
2013-12-12 02:15:00,72.1,70.2,30.16,ESE,115,0.0,0.0,94,0.00,,---,0.00,VWS V13.01,2013-12-12 07:15:00,
2013-12-12 02:16:00,72.1,70.2,30.16,ESE,115,0.0,0.0,94,0.00,,---,0.00,VWS V13.01,2013-12-12 07:16:00,
2013-12-12 02:17:00,72.3,70.4,30.16,ESE,115,0.0,0.0,94,0.00,,---,0.00,VWS V13.01,2013-12-12 07:17:00,
2013-12-12 02:18:00,72.0,70.1,30.16,ESE,115,0.0,0.0,94,0.00,,---,0.00,VWS V13.01,2013-12-12 07:18:00,
2013-12-12 02:19:00,72.1,70.2,30.16,ESE,115,0.0,0.0,94,0.00,,---,0.00,VWS V13.01,2013-12-12 07:19:00,
2013-12-12 02:20:00,72.0,70.1,30.16,ESE,115,0.0,0.0,94,0.00,,---,0.00,VWS V13.01,2013-12-12 07:20:00,
2013-12-12 02:21:00,72.3,70.4,30.16,ESE,115,0.0,0.0,94,0.00,,---,0.00,VWS V13.01,2013-12-12 07:21:00,
2013-12-12 02:22:00,72.1,70.2,30.16,ESE,115,0.0,0.0,94,0.00,,---,0.00,VWS V13.01,2013-12-12 07:22:00,
2013-12-12 02:23:00,72.1,70.2,30.16,ESE,115,0.0,0.0,94,0.00,,---,0.00,VWS V13.01,2013-12-12 07:23:00,
2013-12-12 02:24:00,71.9,70.0,30.16,ESE,115,0.0,0.0,94,0.00,,---,0.00,VWS V13.01,2013-12-12 07:24:00,
2013-12-12 02:25:00,72.0,70.1,30.16,ESE,115,0.0,0.0,94,0.00,,---,0.00,VWS V13.01,2013-12-12 07:25:00,
2013-12-12 02:26:00,71.9,70.0,30.16,ESE,115,0.0,0.0,94,0.00,,---,0.00,VWS V13.01,2013-12-12 07:26:00,
2013-12-12 02:27:00,72.0,70.1,30.16,ESE,115,0.0,0.0,94,0.00,,---,0.00,VWS V13.01,2013-12-12 07:27:00,
2013-12-12 02:28:00,72.0,70.2,30.16,ESE,115,0.0,0.0,94,0.00,,---,0.00,VWS V13.01,2013-12-12 07:28:00,
2013-12-12 02:29:00,72.0,70.2,30.16,ESE,115,0.0,0.0,94,0.00,,---,0.00,VWS V13.01,2013-12-12 07:29:00,
2013-12-12 02:30:00,71.9,70.1,30.16,ESE,115,0.0,0.0,94,0.00,,---,0.00,VWS V13.01,2013-12-12 07:30:00,
2013-12-12 02:31:00,71.8,70.0,30.16,ESE,115,0.0,0.0,94,0.00,,---,0.00,VWS V13.01,2013-12-12 07:31:00,
2013-12-12 02:32:00,72.0,70.2,30.16,ESE,115,0.0,0.0,94,0.00,,---,0.00,VWS V13.01,2013-12-12 07:32:00,
2013-12-12 02:33:00,71.8,70.0,30.16,ESE,115,0.0,0.0,94,0.00,,---,0.00,VWS V13.01,2013-12-12 07:33:00,
2013-12-12 02:34:00,71.9,70.1,30.16,ESE,115,0.0,0.0,94,0.00,,---,0.00,VWS V13.01,2013-12-12 07:34:00,
2013-12-12 02:35:00,71.9,70.2,30.16,ESE,115,0.0,0.0,94,0.00,,---,0.00,VWS V13.01,2013-12-12 07:35:00,
2013-12-12 02:36:00,71.8,70.1,30.16,ESE,115,0.0,0.0,94,0.00,,---,0.00,VWS V13.01,2013-12-12 07:36:00,
2013-12-12 02:37:00,71.7,69.9,30.16,ESE,115,0.0,0.0,94,0.00,,---,0.00,VWS V13.01,2013-12-12 07:37:00,
2013-12-12 02:38:00,71.9,70.2,30.16,ESE,115,0.0,0.0,94,0.00,,---,0.00,VWS V13.01,2013-12-12 07:38:00,
2013-12-12 02:39:00,71.9,70.2,30.16,ESE,115,0.0,0.0,94,0.00,,---,0.00,VWS V13.01,2013-12-12 07:39:00,
2013-12-12 02:40:00,72.0,70.3,30.16,ESE,115,0.0,0.0,94,0.00,,---,0.00,VWS V13.01,2013-12-12 07:40:00,
2013-12-12 02:41:00,71.9,70.2,30.16,ESE,115,0.0,0.0,94,0.00,,---,0.00,VWS V13.01,2013-12-12 07:41:00,
2013-12-12 02:42:00,71.9,70.2,30.16,ESE,115,0.0,0.0,94,0.00,,---,0.00,VWS V13.01,2013-12-12 07:42:00,
2013-12-12 02:43:00,71.6,69.9,30.16,ESE,115,0.0,0.0,94,0.00,,---,0.00,VWS V13.01,2013-12-12 07:43:00,
2013-12-12 02:44:00,71.7,70.0,30.16,ESE,115,0.0,0.0,94,0.00,,---,0.00,VWS V13.01,2013-12-12 07:44:00,
2013-12-12 02:45:00,71.8,70.1,30.16,ESE,115,0.0,0.0,94,0.00,,---,0.00,VWS V13.01,2013-12-12 07:45:00,
2013-12-12 02:46:00,71.9,70.2,30.16,ESE,115,0.0,0.0,94,0.00,,---,0.00,VWS V13.01,2013-12-12 07:46:00,
2013-12-12 02:47:00,71.6,69.9,30.16,ESE,115,0.0,0.0,94,0.00,,---,0.00,VWS V13.01,2013-12-12 07:47:00,
2013-12-12 02:48:00,71.6,69.9,30.16,ESE,115,0.0,0.0,94,0.00,,---,0.00,VWS V13.01,2013-12-12 07:48:00,
2013-12-12 02:49:00,71.9,70.2,30.16,ESE,115,0.0,0.0,94,0.00,,---,0.00,VWS V13.01,2013-12-12 07:49:00,
2013-12-12 02:50:00,71.6,69.9,30.16,ESE,115,0.0,0.0,94,0.00,,---,0.00,VWS V13.01,2013-12-12 07:50:00,
2013-12-12 02:51:00,71.7,70.1,30.16,ESE,115,0.0,0.0,95,0.00,,---,0.00,VWS V13.01,2013-12-12 07:51:00,
2013-12-12 02:52:00,71.8,70.2,30.16,ESE,115,0.0,0.0,95,0.00,,---,0.00,VWS V13.01,2013-12-12 07:52:00,
2013-12-12 02:53:00,71.8,70.2,30.16,ESE,115,0.0,0.0,95,0.00,,---,0.00,VWS V13.01,2013-12-12 07:53:00,
2013-12-12 02:54:00,71.7,70.1,30.16,ESE,115,0.0,0.0,95,0.00,,---,0.00,VWS V13.01,2013-12-12 07:54:00,
2013-12-12 02:55:00,71.9,70.3,30.16,ESE,115,0.0,0.0,95,0.00,,---,0.00,VWS V13.01,2013-12-12 07:55:00,
2013-12-12 02:56:00,71.8,70.2,30.16,ESE,115,0.0,0.0,95,0.00,,---,0.00,VWS V13.01,2013-12-12 07:56:00,
2013-12-12 02:57:00,71.6,70.0,30.16,ESE,115,0.0,0.0,95,0.00,,---,0.00,VWS V13.01,2013-12-12 07:57:00,
2013-12-12 02:58:00,71.7,70.1,30.16,ESE,115,0.0,0.0,95,0.00,,---,0.00,VWS V13.01,2013-12-12 07:58:00,
2013-12-12 02:59:00,71.7,70.1,30.16,ESE,115,0.0,0.0,95,0.00,,---,0.00,VWS V13.01,2013-12-12 07:59:00,
2013-12-12 03:00:00,71.6,70.0,30.16,ESE,115,0.0,0.0,95,0.00,,---,0.00,VWS V13.01,2013-12-12 08:00:00,
2013-12-12 03:01:00,71.7,70.1,30.16,ESE,115,0.0,0.0,95,0.00,,---,0.00,VWS V13.01,2013-12-12 08:01:00,
2013-12-12 03:02:00,71.7,70.1,30.16,ESE,115,0.0,0.0,95,0.00,,---,0.00,VWS V13.01,2013-12-12 08:02:00,
2013-12-12 03:03:00,71.7,70.1,30.16,ESE,115,0.0,0.0,95,0.00,,---,0.00,VWS V13.01,2013-12-12 08:03:00,
2013-12-12 03:04:00,71.5,69.9,30.16,ESE,115,0.0,0.0,95,0.00,,---,0.00,VWS V13.01,2013-12-12 08:04:00,
2013-12-12 03:05:00,71.7,70.1,30.16,ESE,115,0.0,0.0,95,0.00,,---,0.00,VWS V13.01,2013-12-12 08:05:00,
2013-12-12 03:06:00,71.6,70.0,30.16,ESE,115,0.0,0.0,95,0.00,,---,0.00,VWS V13.01,2013-12-12 08:06:00,
2013-12-12 03:07:00,71.6,70.1,30.16,ESE,115,0.0,0.0,95,0.00,,---,0.00,VWS V13.01,2013-12-12 08:07:00,
2013-12-12 03:08:00,71.5,70.0,30.16,ESE,115,0.0,0.0,95,0.00,,---,0.00,VWS V13.01,2013-12-12 08:08:00,
2013-12-12 03:09:00,71.6,70.1,30.16,ESE,115,0.0,0.0,95,0.00,,---,0.00,VWS V13.01,2013-12-12 08:09:00,
2013-12-12 03:10:00,71.5,70.0,30.16,ESE,115,0.0,0.0,95,0.00,,---,0.00,VWS V13.01,2013-12-12 08:10:00,
2013-12-12 03:11:00,71.5,70.0,30.16,ESE,115,0.0,0.0,95,0.00,,---,0.00,VWS V13.01,2013-12-12 08:11:00,
2013-12-12 03:12:00,71.6,70.1,30.16,ESE,115,0.0,0.0,95,0.00,,---,0.00,VWS V13.01,2013-12-12 08:12:00,
2013-12-12 03:13:00,71.6,70.1,30.16,ESE,115,0.0,0.0,95,0.00,,---,0.00,VWS V13.01,2013-12-12 08:13:00,
2013-12-12 03:14:00,71.6,70.1,30.16,ESE,115,0.0,0.0,95,0.00,,---,0.00,VWS V13.01,2013-12-12 08:14:00,
2013-12-12 03:15:00,71.5,70.0,30.16,ESE,115,0.0,0.0,95,0.00,,---,0.00,VWS V13.01,2013-12-12 08:15:00,
2013-12-12 03:16:00,71.6,70.1,30.16,ESE,115,0.0,0.0,95,0.00,,---,0.00,VWS V13.01,2013-12-12 08:16:00,
2013-12-12 03:17:00,71.7,70.2,30.16,ESE,115,0.0,0.0,95,0.00,,---,0.00,VWS V13.01,2013-12-12 08:17:00,
2013-12-12 03:18:00,71.5,70.0,30.16,ESE,115,0.0,0.0,95,0.00,,---,0.00,VWS V13.01,2013-12-12 08:18:00,
2013-12-12 03:19:00,71.8,70.3,30.16,ESE,115,0.0,0.0,95,0.00,,---,0.00,VWS V13.01,2013-12-12 08:19:00,
2013-12-12 03:20:00,71.6,70.1,30.16,ESE,115,0.0,0.0,95,0.00,,---,0.00,VWS V13.01,2013-12-12 08:20:00,
2013-12-12 03:21:00,71.5,70.0,30.16,ESE,115,0.0,0.0,95,0.00,,---,0.00,VWS V13.01,2013-12-12 08:21:00,
2013-12-12 03:22:00,71.6,70.1,30.16,ESE,115,0.0,0.0,95,0.00,,---,0.00,VWS V13.01,2013-12-12 08:22:00,